{"data":{"norad_id":67850,"intl_designator":"2026-034A","name":"STARLINK-36840","alt_names":[],"object_type":"PAYLOAD","status":"ACTIVE","operator":null,"country":"US","launch_date":"2026-02-20","launch_site_code":"AFETR","launch_vehicle":null,"mission":null,"orbit_class":"UNKNOWN","rcs_meters":null,"size_class":null,"mass_kg":null,"dimensions":null,"purposes":["comms"],"wikipedia_slug":null,"has_3d_model":false,"image_url":null,"decayed_at":null,"tle_current":{"epoch":"2026-05-25T04:43:21.338400Z","epoch_age_seconds":54256,"freshness":"FRESH","line1":"1 67850U 26034A   26145.19677475  .00016260  00000+0  55975-3 0  9993","line2":"2 67850  53.1555 208.5881 0000580  80.1979 279.9087 15.30208779 15753","mean_motion":15.30208779,"eccentricity":5.8e-5,"inclination_deg":53.1555,"raan_deg":208.5881,"arg_perigee_deg":80.1979,"mean_anomaly_deg":279.9087,"bstar":0.00055975,"rev_number":1575,"period_min":94.104805812253,"perigee_km":474.79136413336,"apogee_km":475.58634993278,"semimajor_km":6853.3258570331,"source":"CELESTRAK","updated_at":"2026-05-25T13:38:21.724572Z"}}}